Weather History for KDGW - August, 2013

Change the Weather History Date:

Friday, August 23, 2013

  Actual Average Record
Temperature  
Mean Temperature 77 °F 68 °F  
Max Temperature 91 °F 86 °F 97 °F (2006)
Min Temperature 62 °F 52 °F 31 °F (2015)
Degree Days  
Heating Degree Days 0 1  
Month to date heating degree days 0 14  
Since 1 June heating degree days 56 139  
Since 1 July heating degree days 0 29  
Cooling Degree Days 12 4  
Month to date cooling degree days 143 146  
Year to date cooling degree days 543 428  
Since 1 June cooling degree days 527 422  
Growing Degree Days 26 (Base 50)    
Moisture  
Dew Point 52 °F    
Average Humidity 54    
Maximum Humidity 84    
Minimum Humidity 23    
Precipitation  
Precipitation T in 0.03 in 0.06 in (2009)
Month to date precipitation 0.14 0.83  
Year to date precipitation 5.93 9.74  
Sea Level Pressure  
Sea Level Pressure 29.86 in    
Wind  
Wind Speed 9 mph (SSE)    
Max Wind Speed 23 mph    
Max Gust Speed 29 mph    
Visibility 10 miles    
Events Rain    
T = Trace of Precipitation, MM = Missing Value Source: NWS Daily Summary

Daily Weather History Graph

Daily Weather History Graph

Search for Another Location

Airport or City:

Trip Planner

Search our weather history database for the weather conditions in past years. The results will help you decide how hot, cold, wet, or windy it might be!

Date:

Astronomy

Aug. 23, 2013 Rise Set
Actual Time 6:16 AM MDT 7:50 PM MDT
Civil Twilight 5:47 AM MDT 8:20 PM MDT
Nautical Twilight 5:10 AM MDT 8:56 PM MDT
Astronomical Twilight 4:32 AM MDT 9:34 PM MDT
Moon 9:04 PM MDT (8/23) 9:20 AM MDT (8/23)
Length of Visible Light 14h 33m
Length of Day
13h 33m
Waning Gibbous, 91% of the Moon is Illuminated
Aug 23
Waning Gibbous
Aug 28
Last Quarter
Sep 5
New
Sep 12
First Quarter
Sep 19
Full

Hourly Weather History & Observations

Time (MDT) Temp. Heat Index Dew Point Humidity Pressure Visibility Wind Dir Wind Speed Gust Speed Precip Events Conditions
12:53 AM 68.0 °F - 51.1 °F 55% 30.14 in 10.0 mi SSE 17.3 mph - N/A   Clear
1:53 AM 66.9 °F - 52.0 °F 59% 30.12 in 10.0 mi SE 11.5 mph - N/A   Scattered Clouds
2:53 AM 66.0 °F - 54.0 °F 65% 29.90 in 10.0 mi ESE 11.5 mph - N/A   Mostly Cloudy
3:53 AM 64.0 °F - 55.9 °F 75% 29.89 in 10.0 mi SE 13.8 mph - N/A   Clear
4:53 AM 63.0 °F - 57.9 °F 84% 29.88 in 10.0 mi SSE 10.4 mph - N/A   Clear
5:53 AM 62.1 °F - 57.9 °F 86% 29.90 in 10.0 mi SSE 10.4 mph - N/A   Clear
6:53 AM 62.1 °F - 57.9 °F 86% 29.92 in 8.0 mi SE 8.1 mph - N/A   Overcast
7:53 AM 64.0 °F - 57.9 °F 80% 29.92 in 10.0 mi SSE 6.9 mph - N/A   Partly Cloudy
8:53 AM 69.1 °F - 57.9 °F 68% 29.90 in 10.0 mi SSE 5.8 mph - N/A   Clear
9:53 AM 77.0 °F - 54.0 °F 45% 29.88 in 10.0 mi South 3.5 mph - N/A   Clear
10:53 AM 80.1 °F 79.9 °F 53.1 °F 39% 29.87 in 10.0 mi WNW 4.6 mph - N/A   Scattered Clouds
11:53 AM 84.0 °F 82.5 °F 53.1 °F 34% 29.85 in 10.0 mi NW 4.6 mph - N/A   Clear
12:53 PM 86.0 °F - 50.0 °F 29% 29.84 in 10.0 mi Variable 5.8 mph - N/A   Clear
1:53 PM 89.1 °F - 48.0 °F 24% 29.81 in 10.0 mi ESE 9.2 mph 16.1 mph N/A   Clear
2:53 PM 90.0 °F - 48.9 °F 24% 29.79 in 10.0 mi East 8.1 mph - N/A   Partly Cloudy
3:53 PM 89.1 °F - 46.0 °F 22% 29.76 in 10.0 mi Calm Calm - N/A   Clear
4:53 PM 90.0 °F - 46.0 °F 22% 29.75 in 10.0 mi South 8.1 mph - N/A   Partly Cloudy
5:53 PM 88.0 °F - 46.9 °F 24% 29.75 in 10.0 mi SE 13.8 mph 18.4 mph N/A   Clear
6:53 PM 86.0 °F - 46.9 °F 26% 29.74 in 10.0 mi SSE 12.7 mph - N/A   Clear
7:53 PM 82.9 °F - 50.0 °F 32% 29.75 in 10.0 mi SSE 13.8 mph - N/A   Partly Cloudy
8:51 PM 78.8 °F - 48.2 °F 34% 29.98 in 10.0 mi SSW 15.0 mph 28.8 mph N/A   Partly Cloudy
8:53 PM 79.0 °F - 48.0 °F 34% 29.79 in 10.0 mi SSW 15.0 mph 28.8 mph N/A   Partly Cloudy
9:53 PM 75.0 °F - 48.9 °F 40% 29.82 in 10.0 mi West 10.4 mph 21.9 mph N/A   Clear
10:53 PM 69.1 °F - 54.0 °F 58% 29.83 in 10.0 mi WNW 12.7 mph 21.9 mph 0.00 in Rain Light Rain
11:53 PM 72.0 °F - 50.0 °F 46% 29.81 in 10.0 mi West 5.8 mph - 0.00 in   Mostly Cloudy